Tracking 30744 objects as of 23-Jun-2025
HD Live streaming from Space Station
objects crossing your sky now

STARLINK-1304

Track STARLINK-1304 now!
10-day predictions
STARLINK-1304 is classified as:


NORAD ID: 45376
Int'l Code: 2020-019S
Perigee: 553.5 km
Apogee: 555.2 km
Inclination: 53.1 °
Period: 95.6 minutes
Semi major axis: 6925 km
RCS: Unknown
Launch date: March 18, 2020
Source: United States (US)
Launch site: AIR FORCE EASTERN TEST RANGE (AFETR)
Your satellite tracking list
Your tracking list is empty




NASA's NSSDC Master Catalog

Two Line Element Set (TLE):
1 45376U 20019S   25173.51633750  .00000418  00000-0  46954-4 0  9990
2 45376  53.0560 254.5835 0001181  82.6825 277.4298 15.06396782290513
Source of the keplerian elements: AFSPC